OVO771 OMDB-ZBAA

Flight info

Callsign OVO771
Flight time N/A
Altitude 35000
Route IVURO M677 KUSEN A791 LALDO B505 PG J215 ATRIS G325 KALAT/N0497F370 G325 HANGU P500 PS G325 PURPA/K0906S1130 W112 VIKUP/K0891S1190 W112 BILDA W619 JSG V67 ALGOT W199 YBL W272 DAMRO V162 DKO W69 GUVBA GUVBA6J
Aircraft A35K/H-SDE2E3GHIJ3J4J5LM1ORWXY/LB1D1

Departure

Time 2026-05-08 07:21
Airport Dubai International Airport (OMDB)

Arrival

Time N/A
Airport Beijing Capital International Airport (ZBAA)
Time Latitude Longitude Altitude Speed Heading
2026-05-08 06:49 25.24838 55.36369 27 ft 0 kts 212°
2026-05-08 07:03 25.24855 55.36380 26 ft 4 kts 212°
2026-05-08 07:04 25.24878 55.36395 26 ft 4 kts 212°
2026-05-08 07:04 25.24901 55.36410 24 ft 3 kts 212°
2026-05-08 07:04 25.24919 55.36419 24 ft 4 kts 165°
2026-05-08 07:04 25.24936 55.36403 24 ft 4 kts 120°
2026-05-08 07:05 25.24944 55.36389 25 ft 0 kts 122°
2026-05-08 07:08 25.24942 55.36391 27 ft 2 kts 122°
2026-05-08 07:09 25.24906 55.36456 27 ft 13 kts 122°
2026-05-08 07:09 25.24852 55.36551 27 ft 18 kts 122°
2026-05-08 07:09 25.24793 55.36686 27 ft 20 kts 108°
2026-05-08 07:09 25.24753 55.36838 27 ft 19 kts 113°
2026-05-08 07:10 25.24691 55.36957 27 ft 18 kts 122°
2026-05-08 07:10 25.24621 55.37081 27 ft 20 kts 122°
2026-05-08 07:10 25.24547 55.37212 27 ft 21 kts 121°
2026-05-08 07:10 25.24469 55.37350 27 ft 22 kts 122°
2026-05-08 07:11 25.24388 55.37494 27 ft 23 kts 122°
2026-05-08 07:11 25.24304 55.37645 27 ft 23 kts 122°
2026-05-08 07:11 25.24224 55.37787 27 ft 16 kts 122°
2026-05-08 07:11 25.24173 55.37878 27 ft 13 kts 122°
2026-05-08 07:12 25.24130 55.37955 27 ft 9 kts 122°
2026-05-08 07:12 25.24104 55.38010 27 ft 9 kts 108°
2026-05-08 07:12 25.24124 55.38061 27 ft 7 kts 22°
2026-05-08 07:12 25.24169 55.38048 28 ft 7 kts 327°
2026-05-08 07:13 25.24204 55.38004 28 ft 11 kts 305°
2026-05-08 07:13 25.24259 55.37908 27 ft 15 kts 301°
2026-05-08 07:13 25.24293 55.37853 27 ft 7 kts 303°
2026-05-08 07:13 25.24323 55.37837 27 ft 2 kts 356°
2026-05-08 07:14 25.24330 55.37838 27 ft 1 kts
2026-05-08 07:14 25.24332 55.37838 27 ft 1 kts
2026-05-08 07:15 25.24341 55.37841 28 ft 2 kts 15°
2026-05-08 07:15 25.24374 55.37856 28 ft 9 kts 26°
2026-05-08 07:15 25.24424 55.37894 30 ft 8 kts 36°
2026-05-08 07:15 25.24471 55.37928 30 ft 8 kts 34°
2026-05-08 07:16 25.24522 55.37967 30 ft 10 kts 34°
2026-05-08 07:16 25.24568 55.38018 29 ft 9 kts 69°
2026-05-08 07:16 25.24557 55.38093 29 ft 10 kts 115°
2026-05-08 07:16 25.24523 55.38164 28 ft 10 kts 121°
2026-05-08 07:17 25.24496 55.38218 28 ft 6 kts 110°
2026-05-08 07:17 25.24493 55.38240 28 ft 1 kts 87°
2026-05-08 07:17 25.24508 55.38255 28 ft 4 kts 39°
2026-05-08 07:17 25.24513 55.38259 28 ft 0 kts 35°
2026-05-08 07:19 25.24547 55.38284 28 ft 18 kts 32°
2026-05-08 07:19 25.24624 55.38315 28 ft 11 kts 349°
2026-05-08 07:19 25.24677 55.38260 28 ft 11 kts 300°
2026-05-08 07:20 25.24747 55.38132 32 ft 44 kts 301°
2026-05-08 07:20 25.25024 55.37632 32 ft 106 kts 301°
2026-05-08 07:20 25.25504 55.36766 30 ft 159 kts 301°
2026-05-08 07:20 25.26153 55.35656 412 ft 175 kts 300°
2026-05-08 07:21 25.26804 55.34545 1149 ft 170 kts 300°
2026-05-08 07:21 25.27442 55.33362 1582 ft 191 kts 298°
2026-05-08 07:21 25.28157 55.32032 1868 ft 211 kts 298°
2026-05-08 07:21 25.28961 55.30641 2182 ft 218 kts 304°
2026-05-08 07:22 25.30192 55.29620 2509 ft 231 kts 338°
2026-05-08 07:22 25.31810 55.29419 2896 ft 237 kts 357°
2026-05-08 07:22 25.33465 55.29485 3304 ft 238 kts 359°
2026-05-08 07:22 25.35136 55.29560 3710 ft 241 kts 359°
2026-05-08 07:23 25.36804 55.29627 4290 ft 239 kts 358°
2026-05-08 07:23 25.38468 55.29712 4902 ft 240 kts
2026-05-08 07:23 25.40067 55.30302 5426 ft 249 kts 31°
2026-05-08 07:23 25.41373 55.31664 5713 ft 268 kts 48°
2026-05-08 07:24 25.42560 55.33322 6066 ft 280 kts 50°
2026-05-08 07:24 25.43776 55.35046 6566 ft 286 kts 50°
2026-05-08 07:24 25.45015 55.36780 7137 ft 289 kts 50°
2026-05-08 07:24 25.46276 55.38526 7711 ft 292 kts 50°
2026-05-08 07:25 25.47560 55.40289 8284 ft 296 kts 51°
2026-05-08 07:25 25.48854 55.42066 8930 ft 297 kts 51°
2026-05-08 07:25 25.51399 55.45725 10060 ft 307 kts 54°
2026-05-08 07:26 25.52500 55.47816 10283 ft 322 kts 71°
2026-05-08 07:26 25.52822 55.50297 10494 ft 334 kts 97°
2026-05-08 07:26 25.52132 55.52766 10711 ft 343 kts 120°
2026-05-08 07:26 25.50870 55.55065 10939 ft 356 kts 124°
2026-05-08 07:27 25.49498 55.57400 11164 ft 368 kts 124°
2026-05-08 07:27 25.48092 55.59813 11396 ft 378 kts 124°
2026-05-08 07:27 25.46665 55.62286 11775 ft 383 kts 123°
2026-05-08 07:27 25.45236 55.64778 12271 ft 384 kts 123°
2026-05-08 07:28 25.43806 55.67281 12791 ft 386 kts 123°
2026-05-08 07:28 25.42589 55.69938 13293 ft 390 kts 111°
2026-05-08 07:28 25.41846 55.72834 13808 ft 393 kts 105°
2026-05-08 07:28 25.41225 55.75787 14220 ft 396 kts 105°
2026-05-08 07:29 25.40609 55.78763 14613 ft 399 kts 104°
2026-05-08 07:29 25.39979 55.81769 14996 ft 403 kts 105°
2026-05-08 07:29 25.39338 55.84792 15443 ft 405 kts 104°